When you browse on this site, cookies collect data to enhance your experience and personalize the content and advertising you see.
Visit our Privacy Policy to learn more. By continuing to use the site, you agree to this use of cookies and data.
  • In Sweden
  • List of Countries
  • For 7 days
  • Water Temperature
  • Weather Map
  • Weather Widgets
  • user-avatar
    Login

    Hourly Weather Molokovo

    Today, 21 September, Saturday

    Time Temperature Precipitation Wind Pressure Humidity
    00:00 +3°C° 0 mm 2 mps 755 mmHg 83%
    01:00 +3°C° 0 mm 2 mps 755 mmHg 87%
    02:00 +3°C° 0 mm 2 mps 755 mmHg 92%
    03:00 +4°C° 0 mm 2 mps 755 mmHg 90%
    04:00 +4°C° 0 mm 2 mps 754 mmHg 88%
    05:00 +5°C° 0 mm 2 mps 754 mmHg 86%
    06:00 +4°C° 0 mm 3 mps 753 mmHg 84%
    07:00 +5°C° 0 mm 4 mps 753 mmHg 82%
    08:00 +5°C° 0 mm 4 mps 752 mmHg 80%
    09:00 +5°C° 0.9 mm 4 mps 751 mmHg 85%
    10:00 +5°C° 0.9 mm 4 mps 751 mmHg 90%
    11:00 +5°C° 0.9 mm 4 mps 750 mmHg 95%
    12:00 +6°C° 0.6 mm 4 mps 749 mmHg 96%
    13:00 +6°C° 0.6 mm 4 mps 749 mmHg 96%
    14:00 +8°C° 0.6 mm 3 mps 749 mmHg 97%
    15:00 +9°C° 0.4 mm 3 mps 748 mmHg 97%
    16:00 +9°C° 0.4 mm 3 mps 748 mmHg 97%
    17:00 +10°C° 0.4 mm 3 mps 747 mmHg 97%
    18:00 +10°C° 0.3 mm 4 mps 747 mmHg 96%
    19:00 +11°C° 0.3 mm 4 mps 747 mmHg 96%
    20:00 +11°C° 0.3 mm 4 mps 747 mmHg 95%
    21:00 +10°C° 0.2 mm 4 mps 747 mmHg 94%
    22:00 +8°C° 0.2 mm 4 mps 747 mmHg 93%
    23:00 +8°C° 0.2 mm 4 mps 747 mmHg 92%

    Tomorrow, 22 September, Sunday

    Time Temperature Precipitation Wind Pressure Humidity
    00:00 +8°C° 0 mm 4 mps 747 mmHg 93%
    01:00 +7°C° 0 mm 4 mps 748 mmHg 94%
    02:00 +8°C° 0 mm 3 mps 748 mmHg 94%
    03:00 +8°C° 0 mm 3 mps 748 mmHg 93%
    04:00 +7°C° 0 mm 4 mps 748 mmHg 92%
    05:00 +6°C° 0 mm 4 mps 748 mmHg 91%
    06:00 +6°C° 0.1 mm 4 mps 749 mmHg 89%
    07:00 +7°C° 0.1 mm 3 mps 749 mmHg 88%
    08:00 +7°C° 0.1 mm 3 mps 750 mmHg 86%
    09:00 +6°C° 0.2 mm 4 mps 750 mmHg 83%
    10:00 +7°C° 0.2 mm 4 mps 750 mmHg 80%
    11:00 +7°C° 0.2 mm 4 mps 751 mmHg 77%
    12:00 +7°C° 0.2 mm 4 mps 751 mmHg 73%
    13:00 +8°C° 0.2 mm 4 mps 752 mmHg 68%
    14:00 +8°C° 0.2 mm 5 mps 752 mmHg 64%
    15:00 +8°C° 0.1 mm 4 mps 752 mmHg 65%
    16:00 +7°C° 0.1 mm 4 mps 753 mmHg 67%
    17:00 +7°C° 0.1 mm 3 mps 753 mmHg 68%
    18:00 +5°C° 0 mm 3 mps 754 mmHg 73%
    19:00 +4°C° 0 mm 3 mps 754 mmHg 78%
    20:00 +4°C° 0 mm 2 mps 755 mmHg 83%
    21:00 +3°C° 0 mm 2 mps 755 mmHg 86%
    22:00 +2°C° 0 mm 2 mps 756 mmHg 89%
    23:00 +2°C° 0 mm 2 mps 756 mmHg 92%

    Day after tomorrow, 23 September, Monday

    Time Temperature Precipitation Wind Pressure Humidity
    00:00 +1°C° 0 mm 2 mps 757 mmHg 93%
    01:00 +2°C° 0 mm 1 mps 757 mmHg 94%
    02:00 +2°C° 0 mm 1 mps 758 mmHg 95%
    03:00 +1°C° 0 mm 1 mps 758 mmHg 95%
    04:00 +1°C° 0 mm 1 mps 758 mmHg 96%
    05:00 +1°C° 0 mm 1 mps 758 mmHg 96%
    06:00 +2°C° 0 mm 1 mps 758 mmHg 91%
    07:00 +3°C° 0 mm 1 mps 758 mmHg 86%
    08:00 +4°C° 0 mm 2 mps 759 mmHg 81%
    09:00 +5°C° 0 mm 2 mps 759 mmHg 74%
    10:00 +7°C° 0 mm 2 mps 759 mmHg 67%
    11:00 +8°C° 0 mm 3 mps 758 mmHg 59%
    12:00 +9°C° 0 mm 3 mps 758 mmHg 58%
    13:00 +9°C° 0 mm 3 mps 758 mmHg 56%
    14:00 +9°C° 0 mm 3 mps 758 mmHg 55%
    15:00 +9°C° 0 mm 2 mps 758 mmHg 58%
    16:00 +8°C° 0 mm 2 mps 758 mmHg 62%
    17:00 +7°C° 0 mm 2 mps 757 mmHg 65%
    18:00 +7°C° 0 mm 1 mps 757 mmHg 70%
    19:00 +6°C° 0 mm 1 mps 758 mmHg 75%
    20:00 +5°C° 0 mm 1 mps 758 mmHg 80%
    21:00 +5°C° 0 mm 1 mps 758 mmHg 79%
    22:00 +4°C° 0 mm 0 mps 758 mmHg 77%
    23:00 +4°C° 0 mm 0 mps 758 mmHg 76%

    24 September, Tuesday

    Time Temperature Precipitation Wind Pressure Humidity
    00:00 +4°C° 0 mm 0 mps 758 mmHg 78%
    01:00 +3°C° 0 mm 0 mps 758 mmHg 79%
    02:00 +4°C° 0 mm 1 mps 758 mmHg 81%
    03:00 +3°C° 0 mm 1 mps 758 mmHg 83%
    04:00 +3°C° 0 mm 1 mps 758 mmHg 84%
    05:00 +3°C° 0 mm 1 mps 757 mmHg 85%
    06:00 +4°C° 0 mm 1 mps 757 mmHg 82%
    07:00 +5°C° 0 mm 1 mps 757 mmHg 78%
    08:00 +6°C° 0 mm 1 mps 757 mmHg 74%
    09:00 +7°C° 0 mm 1 mps 757 mmHg 69%
    10:00 +8°C° 0 mm 1 mps 757 mmHg 63%
    11:00 +10°C° 0 mm 1 mps 757 mmHg 58%
    12:00 +10°C° 0 mm 1 mps 757 mmHg 55%
    13:00 +11°C° 0 mm 1 mps 756 mmHg 53%
    14:00 +11°C° 0 mm 1 mps 756 mmHg 50%
    15:00 +11°C° 0 mm 1 mps 756 mmHg 55%
    16:00 +9°C° 0 mm 0 mps 756 mmHg 60%
    17:00 +8°C° 0 mm 0 mps 755 mmHg 65%
    18:00 +7°C° 0 mm 0 mps 755 mmHg 68%
    19:00 +5°C° 0 mm 0 mps 755 mmHg 72%
    20:00 +4°C° 0 mm 0 mps 755 mmHg 75%
    21:00 +4°C° 0 mm 0 mps 755 mmHg 77%
    22:00 +4°C° 0 mm 1 mps 755 mmHg 79%
    23:00 +4°C° 0 mm 1 mps 755 mmHg 81%

    25 September, Wednesday

    Time Temperature Precipitation Wind Pressure Humidity
    00:00 +4°C° 0 mm 1 mps 755 mmHg 82%
    01:00 +3°C° 0 mm 1 mps 755 mmHg 83%
    02:00 +3°C° 0 mm 1 mps 755 mmHg 84%
    03:00 +3°C° 0 mm 1 mps 755 mmHg 83%
    04:00 +4°C° 0 mm 1 mps 755 mmHg 82%
    05:00 +3°C° 0 mm 2 mps 755 mmHg 80%
    06:00 +4°C° 0 mm 2 mps 755 mmHg 77%
    07:00 +5°C° 0 mm 2 mps 754 mmHg 74%
    08:00 +5°C° 0 mm 2 mps 754 mmHg 72%
    09:00 +6°C° 0 mm 2 mps 754 mmHg 69%
    10:00 +7°C° 0 mm 2 mps 754 mmHg 65%
    11:00 +8°C° 0 mm 2 mps 754 mmHg 62%
    12:00 +8°C° 0.2 mm 2 mps 754 mmHg 68%
    13:00 +8°C° 0.2 mm 3 mps 754 mmHg 74%
    14:00 +7°C° 0.2 mm 3 mps 753 mmHg 80%
    15:00 +7°C° 0.5 mm 3 mps 753 mmHg 84%
    16:00 +6°C° 0.5 mm 2 mps 753 mmHg 88%
    17:00 +6°C° 0.5 mm 2 mps 753 mmHg 92%
    18:00 +6°C° 0.9 mm 2 mps 752 mmHg 93%
    19:00 +6°C° 0.9 mm 2 mps 752 mmHg 94%
    20:00 +5°C° 0.9 mm 3 mps 752 mmHg 95%
    21:00 +5°C° 0.7 mm 3 mps 752 mmHg 95%
    22:00 +5°C° 0.7 mm 3 mps 752 mmHg 95%
    23:00 +5°C° 0.7 mm 3 mps 752 mmHg 94%

    26 September, Thursday

    Time Temperature Precipitation Wind Pressure Humidity
    00:00 +5°C° 0.8 mm 3 mps 752 mmHg 94%
    01:00 +5°C° 0.8 mm 3 mps 751 mmHg 95%
    02:00 +5°C° 0.8 mm 3 mps 751 mmHg 95%
    03:00 +5°C° 0.9 mm 3 mps 751 mmHg 95%
    04:00 +5°C° 0.9 mm 3 mps 751 mmHg 95%
    05:00 +4°C° 0.9 mm 3 mps 751 mmHg 95%
    06:00 +4°C° 0.6 mm 3 mps 751 mmHg 95%
    07:00 +4°C° 0.6 mm 3 mps 751 mmHg 95%
    08:00 +4°C° 0.6 mm 3 mps 751 mmHg 95%
    09:00 +4°C° 0.2 mm 3 mps 751 mmHg 94%
    10:00 +5°C° 0.2 mm 3 mps 751 mmHg 94%
    11:00 +5°C° 0.2 mm 3 mps 751 mmHg 93%
    12:00 +5°C° 0.1 mm 3 mps 751 mmHg 93%
    13:00 +5°C° 0.1 mm 3 mps 751 mmHg 92%
    14:00 +5°C° 0.1 mm 3 mps 751 mmHg 92%
    15:00 +5°C° 0.1 mm 3 mps 751 mmHg 93%
    16:00 +5°C° 0.1 mm 3 mps 751 mmHg 93%
    17:00 +5°C° 0.1 mm 3 mps 751 mmHg 93%
    18:00 +5°C° 0 mm 3 mps 751 mmHg 94%
    19:00 +5°C° 0 mm 3 mps 751 mmHg 94%
    20:00 +4°C° 0 mm 3 mps 751 mmHg 94%
    21:00 +4°C° 0 mm 3 mps 751 mmHg 94%
    22:00 +5°C° 0 mm 3 mps 751 mmHg 94%
    23:00 +5°C° 0 mm 3 mps 751 mmHg 94%
    Show more